TOURFACTS.DK  
Stats and Facts from Tour de France.

Tour de France 2018 starts in 12 days
  Riders   Stages   Teams   Summits   Yearly  


 
Search by year

After 2017 - Stage 21:
 14824 starters.
  5132 different riders.
  639 teams.
  2232 stages.
  456 restdays.
  439589.60 km.
  5653 abandonnees.


Top 3
GC
Christopher Froome86:20:55
Rigoberto Urán86:21:49
Romain Bardet86:23:15
Climb
Warren Barguil169 pt.
Primoz Roglic80 pt.
Thomas De Gendt64 pt.
Sprint
Michael Matthews359 pt.
André Greipel234 pt.
Edvald Boasson Hagen220 pt.
Youth
Simon Yates86:27:09
Louis Meintjes86:29:15
Emanuel Buchmann86:54:16
Facts from Tour de France 1949
  |   Stages.  |   Stage winners.  |   Days in yellow  |   Average speed.  |   Route.  |   Teams.  |   All riders.  |   Rookies.  |  

  |   Withdrawls.  |   GC.  |   Polka  |   Green  |   White  |   Summits. (In tour)  |   Miscellaneous.  |  

Stage 3 on 02 - 07 - 1949
         Owning:    Norbert Callens    
Pick a stage:  1 2 3 4 5 6 7 8 9 10 11 12 13 14 15 16 17 18 19 20 21
  BruxellesBoulogne-sur-Mer | Dist: 211.00 km.

Average speed for all riders in stage:  33,669 km./hr.
    Place:Name:Team:Time:Km/h:
BELNorbert CallensBELBelgium06:05:50  +  00:00:00=34,606 
GERCésar MarcelakFRAWest-North06:05:50  +  00:00:00=34,606 
BELFlorent MathieuBELBelgium06:05:50  +  00:00:00=34,606 
4 BELRik Van SteenbergenBELBelgium06:09:13  +  00:03:23=34,289 
5 FRARaphaël GeminianiFRAFrance06:10:26  +  00:04:36=34,176 
6 SUIFerdi KüblerCHESwitzerland06:11:10  +  00:05:20=34,109 
7 ITAAlfredo MartiniITACadetti Italiens06:11:10  +  00:05:20=34,109 
8 BELStan OckersBELBelgium06:11:10  +  00:05:20=34,109 
9 FRALouis DeprezFRAFrance06:11:41  +  00:05:51=34,061 
10 BELMarcel DupontBELAiglons Belges06:11:41  +  00:05:51=34,061 
11 ITALuciano PezziITAItaly06:12:47  +  00:06:57=33,961 
12 BELJoseph VerhaertBELAiglons Belges06:12:51  +  00:07:01=33,955 
13 FRAMaurice DiotFRAFrance06:13:00  +  00:07:10=33,941 
14 FRAEmile IdéeFRAIle De France06:13:00  +  00:07:10=33,941 
15 FRALouis CaputFRAIle De France06:13:00  +  00:07:10=33,941 
16 FRARoger Le NizerhyFRAWest-North06:13:00  +  00:07:10=33,941 
17 LUXMarcel ErnzerLUXLuxembourg06:13:00  +  00:07:10=33,941 
18 ITAGino BartaliITAItaly06:13:00  +  00:07:10=33,941 
19 ITASerifano BiagioniITAItaly06:13:00  +  00:07:10=33,941 
20 ITAAngelo BrignoleITAItaly06:13:00  +  00:07:10=33,941 
21 ITAFausto CoppiITAItaly06:13:00  +  00:07:10=33,941 
22 ITAEttore MilanoITAItaly06:13:00  +  00:07:10=33,941 
23 ITAMario RicciITAItaly06:13:00  +  00:07:10=33,941 
24 ITABruno PasquiniITAItaly06:13:00  +  00:07:10=33,941 
25 ITAGino SciardisITAItaly06:13:00  +  00:07:10=33,941 
26 BELRoger GhyselinckBELBelgium06:13:00  +  00:07:10=33,941 
27 BELRaymond ImpanisBELBelgium06:13:00  +  00:07:10=33,941 
28 BELLeon JomauxBELBelgium06:13:00  +  00:07:10=33,941 
29 BELDésiré KeteleerBELBelgium06:13:00  +  00:07:10=33,941 
30 BELMarcel KintBELBelgium06:13:00  +  00:07:10=33,941 
31 BELRoger LambrechtBELBelgium06:13:00  +  00:07:10=33,941 
32 BELBriek SchotteBELBelgium06:13:00  +  00:07:10=33,941 
33 FRALouison BobetFRAFrance06:13:00  +  00:07:10=33,941 
34 FRARobert ChapatteFRAFrance06:13:00  +  00:07:10=33,941 
35 FRAGuy LapébieFRAFrance06:13:00  +  00:07:10=33,941 
36 FRAJean-Apotre LazaridesFRAFrance06:13:00  +  00:07:10=33,941 
37 FRALucien LazaridesFRAFrance06:13:00  +  00:07:10=33,941 
38 FRALucien TeisseireFRAFrance06:13:00  +  00:07:10=33,941 
39 FRARené ViettoFRAFrance06:13:00  +  00:07:10=33,941 
40 SUIGeorges AeschlimannCHESwitzerland06:13:00  +  00:07:10=33,941 
41 LUXJean DiederichLUXLuxembourg06:13:00  +  00:07:10=33,941 
42 LUXJean GoldschmitLUXLuxembourg06:13:00  +  00:07:10=33,941 
43 LUXJean KirchenLUXLuxembourg06:13:00  +  00:07:10=33,941 
44 NEDWim De RuyterNLDHolland06:13:00  +  00:07:10=33,941 
45 ESPDalmácio LangaricaESPSpain06:13:00  +  00:07:10=33,941 
46 ESPEmilio RodriguezESPSpain06:13:00  +  00:07:10=33,941 
47 ITAGiuseppe CeramiITACadetti Italiens06:13:00  +  00:07:10=33,941 
48 ITAVittorio MagniITACadetti Italiens06:13:00  +  00:07:10=33,941 
49 ITASylvio PedroniITACadetti Italiens06:13:00  +  00:07:10=33,941 
50 LUXRené BieverLUXLuxembourg06:13:00  +  00:07:10=33,941 
51 BELMarcel De MulderBELAiglons Belges06:13:00  +  00:07:10=33,941 
52 BELJacques GeusBELAiglons Belges06:13:00  +  00:07:10=33,941 
53 FRAAndré BruléFRAIle De France06:13:00  +  00:07:10=33,941 
54 FRADominique ForliniFRAIle De France06:13:00  +  00:07:10=33,941 
55 FRAGeorges GuillierFRAIle De France06:13:00  +  00:07:10=33,941 
56 FRARaymond LucasFRAIle De France06:13:00  +  00:07:10=33,941 
57 FRAJacques MarinelliFRAIle De France06:13:00  +  00:07:10=33,941 
58 ITAAttilio RedolfiFRAIle De France06:13:00  +  00:07:10=33,941 
59 ITAGiuseppe TaccaFRAIle De France06:13:00  +  00:07:10=33,941 
60 FRAPierre CoganFRAWest-North06:13:00  +  00:07:10=33,941 
61 FRAJean-Marie GoasmatFRAWest-North06:13:00  +  00:07:10=33,941 
62 GEREdouard KlabinskiFRAWest-North06:13:00  +  00:07:10=33,941 
63 FRAAnge Le StratFRAWest-North06:13:00  +  00:07:10=33,941 
64 FRARoger PontetFRAWest-North06:13:00  +  00:07:10=33,941 
65 FRARobert DesbatsFRACenter-South West06:13:00  +  00:07:10=33,941 
66 FRAAlbert DolhatsFRACenter-South West06:13:00  +  00:07:10=33,941 
67 FRAMarcel DussaultFRACenter-South West06:13:00  +  00:07:10=33,941 
68 FRARoger LevequeFRACenter-South West06:13:00  +  00:07:10=33,941 
69 FRAHenri MassalFRACenter-South West06:13:00  +  00:07:10=33,941 
70 ITAFermo CamelliniFRASouth-East06:13:00  +  00:07:10=33,941 
71 ITAÉdouard FachleitnerFRASouth-East06:13:00  +  00:07:10=33,941 
72 ITANello LaurediFRASouth-East06:13:00  +  00:07:10=33,941 
73 FRAPierre MolinerisFRASouth-East06:13:00  +  00:07:10=33,941 
74 FRAJean ReyFRASouth-East06:13:00  +  00:07:10=33,941 
75 FRAAntonin RollandFRASouth-East06:13:00  +  00:07:10=33,941 
76 BELEdward Van DijckBELBelgium06:13:00  +  00:07:10=33,941 
77 ESPJosé SerraESPSpain06:13:00  +  00:07:10=33,941 
78 ITAArmando PeverelliITACadetti Italiens06:13:00  +  00:07:10=33,941 
79 ESPJulián BerrenderoESPSpain06:13:00  +  00:07:10=33,941 
80 NEDHuub SijenNLDHolland06:13:25  +  00:07:35=33,903 
81 ESPBernardo RuízESPSpain06:13:25  +  00:07:35=33,903 
82 FRACamille DanguillaumeFRAFrance06:13:32  +  00:07:42=33,893 
83 SUIPierre BrambillaFRASouth-East06:13:34  +  00:07:44=33,890 
84 NEDFrans PauwelsNLDHolland06:13:46  +  00:07:56=33,871 
85 SUIGottfried WeilenmannCHESwitzerland06:13:49  +  00:07:59=33,867 
86 BELJean BreuerBELAiglons Belges06:13:49  +  00:07:59=33,867 
87 FRAJean RobicFRAWest-North06:14:35  +  00:08:45=33,798 
88 ITAAdolphe DeleddaFRASouth-East06:19:34  +  00:13:44=33,354 
89 FRABernard GauthierFRAFrance06:19:56  +  00:14:06=33,322 
90 FRAGeorges MartinFRASouth-East06:21:08  +  00:15:18=33,217 
91 SUIHans HutmacherCHESwitzerland06:21:08  +  00:15:18=33,217 
92 ITAGiovanni CorrieriITAItaly06:22:21  +  00:16:31=33,111 
93 ITAGuido De SantiITAItaly06:22:21  +  00:16:31=33,111 
94 ITAVincenzo RosselloITAItaly06:22:21  +  00:16:31=33,111 
95 FRAEloi TassinFRAWest-North06:23:23  +  00:17:33=33,022 
96 FRAGeorges RamouluxFRACenter-South West06:24:06  +  00:18:16=32,960 
97 FRAJean BlancFRACenter-South West06:24:06  +  00:18:16=32,960 
98 MARCustodio Dos ReisFRACenter-South West06:24:06  +  00:18:16=32,960 
99 FRAEdouard MullerFRAIle De France06:24:06  +  00:18:16=32,960 
100 SUIErnst StettlerCHESwitzerland06:27:50  +  00:22:00=32,643 
101 SUIRoger AeschlimannCHESwitzerland06:27:51  +  00:22:01=32,641 
102 BELMarcel HendrickxBELAiglons Belges06:28:38  +  00:22:48=32,576 
103 NEDJan LambrichsNLDHolland06:28:38  +  00:22:48=32,576 
104 NEDHenk de HoogNLDHolland06:29:44  +  00:23:54=32,484 
105 ITAGiuseppe AusendaITACadetti Italiens06:29:44  +  00:23:54=32,484 
106 FRAPaul PineauFRACenter-South West06:29:44  +  00:23:54=32,484 
107 FRARaoul RemyFRASouth-East06:29:44  +  00:23:54=32,484 
108 FRAPaul GiguetFRASouth-East06:29:44  +  00:23:54=32,484 
109 NEDAndré De KorverNLDHolland06:29:44  +  00:23:54=32,484 
110 FRALouis ThiétardFRAIle De France06:33:26  +  00:27:36=32,178 
111 BELLucien MaelfaitFRAWest-North06:37:22  +  00:31:32=31,860 
112 FRAFrançois PersonFRAWest-North06:38:11  +  00:32:21=31,794 
113 FRAAndre MahéFRAWest-North06:39:35  +  00:33:45=31,683 

Withdrawls: 1
 
Rider
Team
Reason
103  ITABruno GaronziFRACenter-South WestDid not finish

Todays birthdays.

1875  Jules Sales
1888  Leon Lannoy
1922  Henri Surbatis
1932  Ferdinand Devèze
1939  Dieter Puschel
1961  Gerhard Zadrobilek
1964  Javier Duch
1965  Clarence Knickman
1968  Michael Sandstød
1986  Simon Spilak




Visits: